Time,TemperatureF,DewpointF,PressureIn,WindDirection,WindDirectionDegrees,WindSpeedMPH,WindSpeedGustMPH,Humidity,HourlyPrecipIn,Conditions,Clouds,dailyrainin,SoftwareType,DateUTC
2013-05-26 00:02:00,68.0,59.0,30.21,NE,39,1.0,2.0,72,0.00,,,0.01,,2013-05-26 04:02:00,
2013-05-26 00:12:00,68.0,59.0,30.21,ENE,62,1.0,1.0,73,0.00,,,0.00,,2013-05-26 04:12:00,
2013-05-26 00:23:00,68.0,59.0,30.21,ENE,62,1.0,1.0,73,0.00,,,0.00,,2013-05-26 04:23:00,
2013-05-26 00:33:00,68.0,60.0,30.21,ENE,75,1.0,1.0,75,0.00,,,0.00,,2013-05-26 04:33:00,
2013-05-26 00:42:00,68.0,60.0,30.21,ENE,75,1.0,1.0,75,0.00,,,0.00,,2013-05-26 04:42:00,
2013-05-26 00:52:00,67.0,59.0,30.21,East,83,1.0,1.0,76,0.00,,,0.00,,2013-05-26 04:52:00,
2013-05-26 01:02:00,67.0,60.0,30.21,ENE,75,1.0,1.0,77,0.00,,,0.00,,2013-05-26 05:02:00,
2013-05-26 01:12:00,67.0,60.0,30.21,ENE,75,1.0,1.0,77,0.00,,,0.00,,2013-05-26 05:12:00,
2013-05-26 01:22:00,67.0,60.0,30.20,ENE,68,0.0,0.0,78,0.00,,,0.00,,2013-05-26 05:22:00,
2013-05-26 01:32:00,66.0,60.0,30.20,ENE,68,0.0,0.0,81,0.00,,,0.00,,2013-05-26 05:32:00,
2013-05-26 01:42:00,66.0,60.0,30.20,ENE,68,0.0,0.0,81,0.00,,,0.00,,2013-05-26 05:42:00,
2013-05-26 01:52:00,65.0,59.0,30.19,ENE,59,0.0,0.0,81,0.00,,,0.00,,2013-05-26 05:52:00,
2013-05-26 02:01:00,65.0,59.0,30.19,ENE,59,0.0,0.0,82,0.00,,,0.00,,2013-05-26 06:01:00,
2013-05-26 02:12:00,65.0,59.0,30.19,ENE,59,0.0,0.0,82,0.00,,,0.00,,2013-05-26 06:12:00,
2013-05-26 02:22:00,64.0,59.0,30.19,ENE,59,0.0,0.0,84,0.00,,,0.00,,2013-05-26 06:22:00,
2013-05-26 02:32:00,64.0,59.0,30.19,ENE,59,0.0,0.0,84,0.00,,,0.00,,2013-05-26 06:32:00,
2013-05-26 02:42:00,64.0,59.0,30.19,ENE,59,0.0,0.0,84,0.00,,,0.00,,2013-05-26 06:42:00,
2013-05-26 02:52:00,63.0,59.0,30.18,NE,56,0.0,0.0,86,0.00,,,0.00,,2013-05-26 06:52:00,
2013-05-26 03:01:00,63.0,59.0,30.18,NE,56,0.0,0.0,87,0.00,,,0.00,,2013-05-26 07:01:00,
2013-05-26 03:11:00,63.0,59.0,30.18,NE,56,0.0,0.0,87,0.00,,,0.00,,2013-05-26 07:11:00,
2013-05-26 03:22:00,62.0,58.0,30.18,NE,56,0.0,0.0,88,0.00,,,0.00,,2013-05-26 07:22:00,
2013-05-26 03:32:00,62.0,59.0,30.17,NE,56,0.0,0.0,89,0.00,,,0.00,,2013-05-26 07:32:00,
2013-05-26 03:42:00,62.0,59.0,30.17,NE,56,0.0,0.0,89,0.00,,,0.00,,2013-05-26 07:42:00,
2013-05-26 03:52:00,62.0,59.0,30.17,NE,56,0.0,0.0,89,0.00,,,0.00,,2013-05-26 07:52:00,
2013-05-26 04:01:00,61.0,58.0,30.17,NE,56,0.0,0.0,90,0.00,,,0.00,,2013-05-26 08:01:00,
2013-05-26 04:12:00,61.0,58.0,30.17,NE,56,0.0,0.0,90,0.00,,,0.00,,2013-05-26 08:12:00,
2013-05-26 04:21:00,61.0,58.0,30.18,NE,56,0.0,0.0,91,0.00,,,0.00,,2013-05-26 08:21:00,
2013-05-26 04:32:00,61.0,58.0,30.17,NE,56,0.0,0.0,91,0.00,,,0.00,,2013-05-26 08:32:00,
2013-05-26 04:42:00,61.0,58.0,30.17,NE,56,0.0,0.0,91,0.00,,,0.00,,2013-05-26 08:42:00,
2013-05-26 04:53:00,61.0,59.0,30.17,NE,56,0.0,0.0,94,0.00,,,0.00,,2013-05-26 08:53:00,
2013-05-26 05:01:00,60.0,59.0,30.16,NE,56,0.0,0.0,95,0.00,,,0.00,,2013-05-26 09:01:00,
2013-05-26 05:11:00,60.0,59.0,30.16,NE,56,0.0,0.0,95,0.00,,,0.00,,2013-05-26 09:11:00,
2013-05-26 05:21:00,60.0,59.0,30.16,NE,56,0.0,0.0,95,0.00,,,0.00,,2013-05-26 09:21:00,
2013-05-26 05:33:00,60.0,59.0,30.17,NE,56,0.0,0.0,96,0.00,,,0.00,,2013-05-26 09:33:00,
2013-05-26 05:42:00,60.0,59.0,30.17,NE,56,0.0,0.0,96,0.00,,,0.00,,2013-05-26 09:42:00,
2013-05-26 05:53:00,59.0,58.0,30.18,NE,56,0.0,0.0,96,0.00,,,0.00,,2013-05-26 09:53:00,
2013-05-26 06:02:00,60.0,59.0,30.18,NE,56,0.0,0.0,97,0.00,,,0.00,,2013-05-26 10:02:00,
2013-05-26 06:12:00,60.0,59.0,30.18,NE,56,0.0,0.0,97,0.00,,,0.00,,2013-05-26 10:12:00,
2013-05-26 06:23:00,59.0,58.0,30.18,NE,56,0.0,0.0,97,0.00,,,0.00,,2013-05-26 10:23:00,
2013-05-26 06:33:00,59.0,58.0,30.19,NE,56,0.0,0.0,97,0.00,,,0.00,,2013-05-26 10:33:00,
2013-05-26 06:42:00,59.0,58.0,30.19,NE,56,0.0,0.0,97,0.00,,,0.00,,2013-05-26 10:42:00,
2013-05-26 06:52:00,59.0,58.0,30.19,NE,56,0.0,0.0,97,0.00,,,0.00,,2013-05-26 10:52:00,
2013-05-26 07:03:00,59.0,58.0,30.20,NE,56,0.0,0.0,98,0.00,,,0.00,,2013-05-26 11:03:00,
2013-05-26 07:11:00,59.0,58.0,30.20,NE,56,0.0,0.0,98,0.00,,,0.00,,2013-05-26 11:11:00,
2013-05-26 07:22:00,59.0,58.0,30.21,NE,56,0.0,0.0,98,0.00,,,0.00,,2013-05-26 11:22:00,
2013-05-26 07:32:00,60.0,60.0,30.20,NE,56,0.0,0.0,99,0.00,,,0.00,,2013-05-26 11:32:00,
2013-05-26 07:42:00,60.0,60.0,30.20,NE,56,0.0,0.0,99,0.00,,,0.00,,2013-05-26 11:42:00,
2013-05-26 07:52:00,61.0,61.0,30.20,NE,56,0.0,0.0,100,0.00,,,0.00,,2013-05-26 11:52:00,
2013-05-26 08:02:00,63.0,63.0,30.21,NE,56,0.0,0.0,100,0.00,,,0.00,,2013-05-26 12:02:00,
2013-05-26 08:12:00,63.0,63.0,30.21,NE,56,0.0,0.0,100,0.00,,,0.00,,2013-05-26 12:12:00,
2013-05-26 08:21:00,66.0,64.0,30.21,NNE,24,0.0,0.0,93,0.00,,,0.00,,2013-05-26 12:21:00,
2013-05-26 08:32:00,69.0,63.0,30.21,North,10,1.0,4.0,81,0.00,,,0.00,,2013-05-26 12:32:00,
2013-05-26 08:42:00,69.0,63.0,30.21,North,10,1.0,4.0,81,0.00,,,0.00,,2013-05-26 12:42:00,
2013-05-26 08:52:00,73.0,63.0,30.22,NE,34,1.0,1.0,71,0.00,,,0.00,,2013-05-26 12:52:00,
2013-05-26 09:02:00,75.0,62.0,30.22,North,0,2.0,5.0,65,0.00,,,0.00,,2013-05-26 13:02:00,
2013-05-26 09:11:00,75.0,62.0,30.22,North,0,2.0,5.0,65,0.00,,,0.00,,2013-05-26 13:11:00,
2013-05-26 09:21:00,77.0,63.0,30.22,North,359,0.0,0.0,61,0.00,,,0.00,,2013-05-26 13:21:00,
2013-05-26 09:32:00,77.0,61.0,30.23,NE,53,0.0,0.0,58,0.00,,,0.00,,2013-05-26 13:32:00,
2013-05-26 09:42:00,77.0,60.0,30.23,North,359,0.0,0.0,55,0.00,,,0.00,,2013-05-26 13:42:00,
2013-05-26 09:52:00,77.0,60.0,30.23,North,359,0.0,0.0,55,0.00,,,0.00,,2013-05-26 13:52:00,
2013-05-26 10:02:00,76.0,59.0,30.22,North,359,4.0,0.0,56,0.00,,,0.00,,2013-05-26 14:02:00,
2013-05-26 10:11:00,76.0,59.0,30.22,North,359,0.0,0.0,56,0.00,,,0.00,,2013-05-26 14:11:00,
2013-05-26 10:21:00,76.0,59.0,30.22,North,359,0.0,0.0,56,0.00,,,0.00,,2013-05-26 14:21:00,
2013-05-26 10:32:00,76.0,59.0,30.23,North,359,0.0,0.0,55,0.00,,,0.00,,2013-05-26 14:32:00,
2013-05-26 10:42:00,77.0,59.0,30.23,North,359,0.0,0.0,54,0.00,,,0.00,,2013-05-26 14:42:00,
2013-05-26 10:52:00,77.0,59.0,30.23,North,359,0.0,0.0,54,0.00,,,0.00,,2013-05-26 14:52:00,
2013-05-26 11:01:00,77.0,59.0,30.23,North,359,0.0,0.0,54,0.00,,,0.00,,2013-05-26 15:01:00,
2013-05-26 11:12:00,77.0,59.0,30.23,North,359,0.0,0.0,54,0.00,,,0.00,,2013-05-26 15:12:00,
2013-05-26 11:22:00,77.0,60.0,30.23,North,359,0.0,0.0,55,0.00,,,0.00,,2013-05-26 15:22:00,
2013-05-26 11:33:00,77.0,59.0,30.22,North,359,6.0,0.0,53,0.00,,,0.00,,2013-05-26 15:33:00,
2013-05-26 11:43:00,78.0,59.0,30.22,WNW,284,5.0,5.0,52,0.00,,,0.00,,2013-05-26 15:43:00,
2013-05-26 11:53:00,78.0,59.0,30.22,WNW,284,5.0,5.0,52,0.00,,,0.00,,2013-05-26 15:53:00,
2013-05-26 12:03:00,78.0,59.0,30.22,NE,41,0.0,0.0,53,0.00,,,0.00,,2013-05-26 16:03:00,
2013-05-26 12:12:00,78.0,58.0,30.22,North,359,0.0,0.0,50,0.00,,,0.00,,2013-05-26 16:12:00,
2013-05-26 12:23:00,78.0,58.0,30.22,North,359,0.0,0.0,50,0.00,,,0.00,,2013-05-26 16:23:00,
2013-05-26 12:33:00,79.0,58.0,30.22,NE,42,0.0,10.0,48,0.00,,,0.00,,2013-05-26 16:33:00,
2013-05-26 12:42:00,79.0,58.0,30.22,ENE,66,0.0,0.0,48,0.00,,,0.00,,2013-05-26 16:42:00,
2013-05-26 12:53:00,79.0,58.0,30.22,ENE,66,0.0,0.0,48,0.00,,,0.00,,2013-05-26 16:53:00,
2013-05-26 13:02:00,80.0,57.0,30.21,ENE,66,0.0,0.0,46,0.00,,,0.00,,2013-05-26 17:02:00,
2013-05-26 13:11:00,80.0,58.0,30.21,ENE,66,0.0,0.0,47,0.00,,,0.00,,2013-05-26 17:11:00,
2013-05-26 13:22:00,80.0,58.0,30.21,ENE,66,0.0,0.0,47,0.00,,,0.00,,2013-05-26 17:22:00,
2013-05-26 13:32:00,80.0,56.0,30.21,NE,51,2.0,0.0,44,0.00,,,0.00,,2013-05-26 17:32:00,
2013-05-26 13:42:00,81.0,57.0,30.21,NE,35,2.0,4.0,44,0.00,,,0.00,,2013-05-26 17:42:00,
2013-05-26 13:52:00,81.0,57.0,30.21,NE,35,2.0,4.0,44,0.00,,,0.00,,2013-05-26 17:52:00,
2013-05-26 14:01:00,81.0,56.0,30.20,West,262,5.0,5.0,42,0.00,,,0.00,,2013-05-26 18:01:00,
2013-05-26 14:12:00,81.0,56.0,30.20,West,262,5.0,5.0,42,0.00,,,0.00,,2013-05-26 18:12:00,
2013-05-26 14:21:00,81.0,55.0,30.20,North,4,0.0,0.0,41,0.00,,,0.00,,2013-05-26 18:21:00,
2013-05-26 14:32:00,82.0,56.0,30.19,NE,42,4.0,9.0,41,0.00,,,0.00,,2013-05-26 18:32:00,
2013-05-26 14:42:00,82.0,57.0,30.19,North,359,0.0,0.0,42,0.00,,,0.00,,2013-05-26 18:42:00,
2013-05-26 14:52:00,82.0,57.0,30.19,North,359,0.0,0.0,42,0.00,,,0.00,,2013-05-26 18:52:00,
2013-05-26 15:01:00,82.0,57.0,30.19,North,359,0.0,0.0,42,0.00,,,0.00,,2013-05-26 19:01:00,
2013-05-26 15:11:00,82.0,57.0,30.19,North,359,0.0,0.0,42,0.00,,,0.00,,2013-05-26 19:11:00,
2013-05-26 15:22:00,82.0,55.0,30.19,North,359,0.0,0.0,40,0.00,,,0.00,,2013-05-26 19:22:00,
2013-05-26 15:32:00,82.0,56.0,30.18,North,359,0.0,0.0,41,0.00,,,0.00,,2013-05-26 19:32:00,
2013-05-26 15:42:00,82.0,57.0,30.18,NE,53,0.0,0.0,43,0.00,,,0.00,,2013-05-26 19:42:00,
2013-05-26 15:52:00,82.0,57.0,30.18,NE,53,0.0,0.0,43,0.00,,,0.00,,2013-05-26 19:52:00,
2013-05-26 16:02:00,82.0,58.0,30.18,NE,53,0.0,0.0,44,0.00,,,0.00,,2013-05-26 20:02:00,
2013-05-26 16:11:00,82.0,58.0,30.18,NE,53,0.0,0.0,44,0.00,,,0.00,,2013-05-26 20:11:00,
2013-05-26 16:22:00,82.0,59.0,30.17,NE,53,0.0,0.0,45,0.00,,,0.00,,2013-05-26 20:22:00,
2013-05-26 16:32:00,82.0,59.0,30.17,NE,53,0.0,0.0,45,0.00,,,0.00,,2013-05-26 20:32:00,
2013-05-26 16:42:00,82.0,59.0,30.17,NNE,21,0.0,0.0,45,0.00,,,0.00,,2013-05-26 20:42:00,
2013-05-26 16:52:00,82.0,59.0,30.17,NNE,21,0.0,0.0,45,0.00,,,0.00,,2013-05-26 20:52:00,
2013-05-26 17:02:00,81.0,58.0,30.17,North,359,7.0,8.0,45,0.00,,,0.00,,2013-05-26 21:02:00,
2013-05-26 17:11:00,81.0,58.0,30.17,North,359,7.0,8.0,45,0.00,,,0.00,,2013-05-26 21:11:00,
2013-05-26 17:22:00,80.0,58.0,30.16,North,359,0.0,0.0,47,0.00,,,0.00,,2013-05-26 21:22:00,
2013-05-26 17:33:00,80.0,59.0,30.16,North,359,0.0,0.0,48,0.00,,,0.00,,2013-05-26 21:33:00,
2013-05-26 17:43:00,79.0,58.0,30.16,ENE,62,6.0,6.0,48,0.00,,,0.00,,2013-05-26 21:43:00,
2013-05-26 17:53:00,79.0,58.0,30.16,ENE,62,6.0,6.0,48,0.00,,,0.00,,2013-05-26 21:53:00,
2013-05-26 18:03:00,79.0,58.0,30.16,ENE,62,6.0,8.0,48,0.00,,,0.00,,2013-05-26 22:03:00,
2013-05-26 18:12:00,78.0,57.0,30.16,NE,46,4.0,4.0,49,0.00,,,0.00,,2013-05-26 22:12:00,
2013-05-26 18:23:00,78.0,57.0,30.16,NE,46,4.0,4.0,49,0.00,,,0.00,,2013-05-26 22:23:00,
2013-05-26 18:33:00,78.0,58.0,30.16,ENE,68,5.0,5.0,51,0.00,,,0.00,,2013-05-26 22:33:00,
2013-05-26 18:42:00,77.0,58.0,30.16,NE,39,4.0,0.0,52,0.00,,,0.00,,2013-05-26 22:42:00,
2013-05-26 18:53:00,77.0,58.0,30.16,NE,39,4.0,0.0,52,0.00,,,0.00,,2013-05-26 22:53:00,
2013-05-26 19:02:00,77.0,59.0,30.16,NNW,343,0.0,0.0,53,0.00,,,0.00,,2013-05-26 23:02:00,
2013-05-26 19:12:00,76.0,58.0,30.16,NE,51,0.0,3.0,53,0.00,,,0.00,,2013-05-26 23:12:00,
2013-05-26 19:22:00,76.0,58.0,30.16,NE,51,0.0,3.0,53,0.00,,,0.00,,2013-05-26 23:22:00,
2013-05-26 19:32:00,76.0,58.0,30.16,North,359,0.0,0.0,54,0.00,,,0.00,,2013-05-26 23:32:00,
2013-05-26 19:43:00,75.0,58.0,30.16,North,359,0.0,0.0,55,0.00,,,0.00,,2013-05-26 23:43:00,
2013-05-26 19:52:00,75.0,58.0,30.16,North,359,0.0,0.0,55,0.00,,,0.00,,2013-05-26 23:52:00,
2013-05-26 20:02:00,75.0,59.0,30.17,NNE,24,0.0,6.0,57,0.00,,,0.00,,2013-05-27 00:02:00,
2013-05-26 20:11:00,74.0,58.0,30.18,NE,38,0.0,0.0,57,0.00,,,0.00,,2013-05-27 00:11:00,
2013-05-26 20:22:00,74.0,58.0,30.18,NE,38,0.0,0.0,57,0.00,,,0.00,,2013-05-27 00:22:00,
2013-05-26 20:32:00,74.0,58.0,30.18,NE,45,0.0,0.0,58,0.00,,,0.00,,2013-05-27 00:32:00,
2013-05-26 20:42:00,73.0,58.0,30.17,NE,48,3.0,3.0,60,0.00,,,0.00,,2013-05-27 00:42:00,
2013-05-26 20:52:00,73.0,58.0,30.17,NE,48,3.0,3.0,60,0.00,,,0.00,,2013-05-27 00:52:00,
2013-05-26 21:01:00,73.0,59.0,30.18,ENE,59,0.0,0.0,62,0.00,,,0.00,,2013-05-27 01:01:00,
2013-05-26 21:11:00,73.0,59.0,30.18,ENE,59,0.0,0.0,62,0.00,,,0.00,,2013-05-27 01:11:00,
2013-05-26 21:22:00,72.0,59.0,30.18,ENE,59,0.0,0.0,63,0.00,,,0.00,,2013-05-27 01:22:00,
2013-05-26 21:32:00,72.0,60.0,30.19,NE,52,1.0,0.0,65,0.00,,,0.00,,2013-05-27 01:32:00,
2013-05-26 21:42:00,71.0,59.0,30.18,NE,52,0.0,0.0,66,0.00,,,0.00,,2013-05-27 01:42:00,
2013-05-26 21:52:00,71.0,59.0,30.18,NE,52,0.0,0.0,66,0.00,,,0.00,,2013-05-27 01:52:00,
2013-05-26 22:02:00,71.0,59.0,30.18,NE,52,0.0,0.0,67,0.00,,,0.00,,2013-05-27 02:02:00,
2013-05-26 22:11:00,70.0,59.0,30.18,NNE,28,0.0,1.0,68,0.00,,,0.00,,2013-05-27 02:11:00,
2013-05-26 22:22:00,70.0,59.0,30.18,NNE,28,0.0,1.0,68,0.00,,,0.00,,2013-05-27 02:22:00,
2013-05-26 22:32:00,70.0,59.0,30.18,NNE,27,1.0,1.0,69,0.00,,,0.00,,2013-05-27 02:32:00,
2013-05-26 22:42:00,70.0,60.0,30.19,ENE,58,1.0,1.0,71,0.00,,,0.00,,2013-05-27 02:42:00,
2013-05-26 22:52:00,70.0,60.0,30.19,ENE,58,1.0,1.0,71,0.00,,,0.00,,2013-05-27 02:52:00,
2013-05-26 23:02:00,69.0,60.0,30.19,NNE,20,0.0,0.0,73,0.00,,,0.00,,2013-05-27 03:02:00,
2013-05-26 23:11:00,69.0,60.0,30.19,NNE,20,0.0,0.0,73,0.00,,,0.00,,2013-05-27 03:11:00,
2013-05-26 23:21:00,69.0,60.0,30.19,NNE,20,0.0,0.0,74,0.00,,,0.00,,2013-05-27 03:21:00,
2013-05-26 23:33:00,69.0,61.0,30.19,NNE,20,0.0,0.0,75,0.00,,,0.00,,2013-05-27 03:33:00,
2013-05-26 23:43:00,68.0,60.0,30.19,NNE,20,0.0,0.0,76,0.00,,,0.00,,2013-05-27 03:43:00,
2013-05-26 23:53:00,68.0,60.0,30.19,NNE,20,0.0,0.0,76,0.00,,,0.00,,2013-05-27 03:53:00,